COSMOS 2251 DEB, 36470

Orbit data source: Space-Track

COSMOS 2251 DEB, 36470 is space debris in LEO originally from a launch on Wed, 16 Jun 1993 UTC launched from the Plesetsk Missile And Space Complex (PKMTR). The debris from Iridium 33, an American commercial communications satellite, has been tracked extensively since its accidental collision with the defunct Russian satellite Cosmos 2251 in 2009. This event, occurring at high speed in low Earth orbit (LEO), generated thousands of pieces of space debris, significantly increasing the risk of further collisions. The Iridium 33 debris cloud has impacted space traffic management and orbital debris mitigation strategies, making it a subject of ongoing study in space situational awareness.

Loading next visibility...
Identifier
36470, 1993-036BBV
Orbit
LEO
Country
Flag of CISCIS
Related business
Manufacturer
Unknown
Mission
Spacecraft
Bus & Motor
Unknown
Mass
Unknown
Launch date (UTC)
1993-06-16 (32 years ago)
Launch vehicle
Unknown
Launch site
Plesetsk Missile And Space Complex (PKMTR)
Object type
Payload
Rocket body
Debris
Shape & HBR
Unknown shape, 0.1 m
Radar Cross Section
Small (<0.1 m²)

Expand to show TLE details & history
Last TLE update: 1 week ago

TLE from 1 week ago
0 COSMOS 2251 DEB
1 36470U 93036BBV 25287.53010656  .00042497  00000-0  33689-2 0  9998
2 36470  73.8505  16.7904 0024739 215.3956 144.5589 15.00096188652044
Epoch: 2025-10-14T12:43Z
TLE epoch observation values (Epoch: 2025-10-14T12:43:21.206Z)
Latitude
-0.00005°
Longitude
162.63481°
Altitude
583.291 km
Speed
7.561 km/s
True Right ascension
01h 07m 09s
True Declination
0° 00' 00"
Sunlit
Object was in full shadow at epoch
Visualization orbit readout
Latitude
Unknown
Longitude
Unknown
Altitude
Unknown
Speed
Unknown
Apparent Right ascension
Unknown
Apparent Declination
Unknown
Sunlit
N/A
Visualization observer readout
Local Sidereal Time
17:42:34
Azimuth
Unknown
Elevation
Unknown
Doppler factor
Unknown
Orbital elements
Apogee altitude
581.344 km
Perigee altitude
546.995 km
Semi-major axis
6,942.306 km
Eccentricity
0.00247
Inclination
73.8505°
RAAN
16.7904°
Arg. of periapsis
215.3956°
True anomaly
144.72287°
Mean anomaly
144.5589°
Eccentric anomaly
144.64093°
Mean motion
3.75221 °/min
Orbital period
95.94 mins
BSTAR
0.0033689

Documentation

Showing up to 5 results
|